{"data":{"norad_id":65623,"intl_designator":"2025-210B","name":"STARLINK-35239","alt_names":[],"object_type":"PAYLOAD","status":"ACTIVE","operator":null,"country":"US","launch_date":"2025-09-18","launch_site_code":"AFETR","launch_vehicle":null,"mission":null,"orbit_class":"UNKNOWN","rcs_meters":null,"size_class":null,"mass_kg":null,"dimensions":null,"purposes":["comms"],"wikipedia_slug":null,"has_3d_model":false,"image_url":null,"decayed_at":null,"tle_current":{"epoch":"2026-09-20T07:19:36.637824Z","epoch_age_seconds":128725,"freshness":"FRESH","line1":"1 65623U 25210B   26263.30528516  .00014670  00000+0  44457-3 0  9995","line2":"2 65623  53.1577 118.4310 0001765  82.7581 277.3623 15.34393338 57598","mean_motion":15.34393338,"eccentricity":0.0001765,"inclination_deg":53.1577,"raan_deg":118.431,"arg_perigee_deg":82.7581,"mean_anomaly_deg":277.3623,"bstar":0.00044457,"rev_number":5759,"period_min":93.848165547757,"perigee_km":461.51562934944,"apogee_km":463.93045294396,"semimajor_km":6840.8600411467,"source":"CELESTRAK","updated_at":"2026-09-21T09:00:35.658570Z"}}}